sat.trackr.live / text

‹ back to catalog

STARLINK-5409

NORAD 54859 · 2022-177AR

PAYLOAD ACTIVE UNKNOWN

§ Identity

Operator
Country
US
Launch date
2022-12-28
Launch site
AFETR
Launch vehicle
Mass (kg)
RCS (m²)

Purposes: comms

External: N2YO · Heavens-Above · Gunter

§ Orbital elements

Epoch: 2026-05-25T00:33:50.451840Z

Period
94.27 min
Inclination
43.0042°
Eccentricity
0.0001248
Mean motion
15.27575958 rev/d
Perigee alt
482.2 km
Apogee alt
483.9 km
Semi-major
6,861.2 km
B*
2.0231e-5
RAAN
50.5906°
Arg perigee
252.7660°
Mean anomaly
107.3055°
Rev number
18,876

§ Raw data

STARLINK-54091 54859U 22177AR  26145.02350060  .00000295  00000+0  20231-4 0  99912 54859  43.0042  50.5906 0001248 252.7660 107.3055 15.27575958188769

JSON: /api/v1/satellites/54859 · /tle

For live sub-satellite position, see the globe view (requires WebGL).

§ Visibility from observer

Set your observer location to see the next 7 days of passes ≥ 10°. The values pass through the URL so the page stays shareable.

No JS? Fill the form by hand. The geolocation button needs JavaScript.